120  
ASUS44 KLIX 241812  
RWRLIX  
NEW ORLEANS REGIONAL WEATHER ROUNDUP  
NATIONAL WEATHER SERVICE NEW ORLEANS LA  
1200 PM CST SAT FEB 24 2018  
 
NOTE: "FAIR" INDICATES FEW OR NO CLOUDS BELOW 12,000 FEET WITH NO  
SIGNIFICANT WEATHER AND/OR S TO VISIBILITY
.  
SKY/WX - SKY CONDITION AND SIGNIFICANT WEATHER.  
TMP - AIR TEMPERATURE. DP - DEWPOINT TEMPERATURE.  
RH - RELATIVE HUMIDITY. PRES - PRESSURE.  
HI - HEAT INDEX. WCI - WIND CHILL INDEX.  
 
* THESE STATIONS ARE NOT NWS OR FAA STATIONS AND ARE NOT UNDER  
NWS QUALITY CONTROL.  
 
LAZ038-040-048-061>063-065>067-069-241900-  
SOUTHEAST LOUISIANA  
 
CITY SKY/WX TMP DP RH WIND PRES REMARKS
 
N.O. INTL ARPT PTSUNNY 81 71 71 S17G29 30.06F  
6HR MIN TEMP: 70; 6HR MAX TEMP: 81;  
 
N.O. LAKEFRONT FAIR 83 68 60 S20 30.07F  
6HR MIN TEMP: 71; 6HR MAX TEMP: 83;  
 
N.O. DOWNTOWN* MOCLDY 80 68 66 S15G23 30.08F  
6HR MIN TEMP: 71; 6HR MAX TEMP: 81;  
 
RESERVE* FAIR 84 66 54 S18G26 30.05F  
6HR MIN TEMP: 70; 6HR MAX TEMP: 85;  
 
SLIDELL FAIR 81 66 60 S16G24 30.07F  
6HR MIN TEMP: 65; 6HR MAX TEMP: 81;  
 
BATON ROUGE PTSUNNY 83 64 52 S21G30 30.03F  
6HR MIN TEMP: 70; 6HR MAX TEMP: 83;  
 
BOOTHVILLE PTSUNNY 79 71 76 S14 30.11F HAZE  
6HR MIN TEMP: 66; 6HR MAX TEMP: 80;  
 
BELLE CHASSE PTSUNNY 81 72 74 S17G28 30.07F  
6HR MIN TEMP: 70; 6HR MAX TEMP: 81;  
 
BOGALUSA* MOCLDY 83 65 55 S14G20 30.07F  
6HR MIN TEMP: 70; 6HR MAX TEMP: 83; 6HR PCP: 0.05;  
 
GALLIANO* CLOUDY 78 67 68 S13G18 30.08F  
6HR MIN TEMP: 72; 6HR MAX TEMP: 80;  
 
NEW ROADS* MOCLDY 82 65 56 S15G21 30.02F  
6HR MIN TEMP: 68; 6HR MAX TEMP: 82;  
 
GONZALES* MOCLDY 81 66 60 S14G23 30.04F  
6HR MIN TEMP: 68; 6HR MAX TEMP: 82;  
 
HAMMOND* CLOUDY 79 68 69 S13G20 30.05F  
HOUMA* PTSUNNY 81 70 69 S17G25 30.06F  
PORT FOURCHON* CLEAR 79 72 78 S15G21 30.08F  
 

 
 
MSZ070-080>082-241900-  
SOUTHERN MISSISSIPPI  
 
CITY SKY/WX TMP DP RH WIND PRES REMARKS
 
MCCOMB FAIR 80 64 58 S15G25 30.04F  
6HR MIN TEMP: 70; 6HR MAX TEMP: 81;  
 
GULFPORT FAIR 79 70 74 SE14G20 30.09F  
6HR MIN TEMP: 72; 6HR MAX TEMP: 79;  
 
BILOXI FAIR 77 71 80 SE10 30.10F  
6HR MIN TEMP: 71; 6HR MAX TEMP: 78;  
 
PASCAGOULA CLOUDY 78 67 68 S12 30.11F  
6HR MIN TEMP: 69; 6HR MAX TEMP: 79;  
 
STENNIS ARPT* PTSUNNY 79 68 69 S18 30.08F  
 

 
 
COASTAL OBSERVATIONS  
LAKE AND NEARSHORE STATIONS  
 
STATION/POSITION TIME SKY/WX TEMP WIND PRES WAVE
 
AIR SEA DIR/SP/G HT/PER  
(UTC) (F) (DEG/KT/KT) (MB) (FT/S)  
WAVELAND YACHT 1748 73 73 160/ 9/ 11 1019.4  
GRAND ISLE 1748 76 72 170/ 6/ 11 1019.0  
SOUTHWEST PASS 1748 72 49 170/ 16/ 18 1019.8  
NEW CANAL 1748 79 67 180/ 11/ 18 1018.1  
SHELL BEACH 1748 78 77 170/ 15/ 20 1018.9  
 
OFFSHORE STATIONS  
 
STATION/POSITION TIME SKY/WX TEMP WIND PRES WAVE
 
AIR SEA DIR/SP/G HT/PER  
(UTC) (F) (DEG/KT/KT) (MB) (FT/S)  
64 S DAUPHIN ISL 1750 77 73 160/ 17/ 19 1020.1 5/ 7  
 

 
 
 
 
CLICK HERE TO GO TO PREVIOUS BULLETINS.

The Nexlab LA Page
The Nexlab MS Page Main Text Page